Location: Martin Dies, Jr. State Park
(30.8429°N, 94.1720°W)
Time: 12:53:45
(UTC-05:00)

Hubble Space Telescope - Visible Passes

Search period start: 22 April 2021 00:00
Search period end: 02 May 2021 00:00
Orbit: 535 x 539 km, 28.5° (Epoch: 21 April)

Date Brightness Start Highest point End Pass type
(mag) Time Alt. Az. Time Alt. Az. Time Alt. Az.
22 Apr 1.3 21:42:28 10° W 21:45:47 51° SW 21:45:47 51° SW visible
23 Apr 0.8 21:31:34 10° W 21:35:36 63° S 21:35:36 63° S visible
24 Apr 0.8 21:20:39 10° W 21:24:44 61° S 21:25:21 53° SE visible
25 Apr 0.9 21:09:45 10° W 21:13:49 58° S 21:15:04 39° SE visible
26 Apr 1.0 20:58:51 10° W 21:02:53 53° S 21:04:45 28° SE visible
27 Apr 1.2 20:47:58 10° W 20:51:57 48° S 20:54:25 21° SE visible
27 Apr 3.7 22:29:42 10° WSW 22:29:44 10° WSW 22:29:44 10° WSW visible
28 Apr 1.4 20:37:05 10° W 20:41:01 42° SSW 20:44:05 15° SE visible
28 Apr 3.5 22:19:09 10° WSW 22:19:24 11° WSW 22:19:24 11° WSW visible
29 Apr 1.7 20:26:14 10° W 20:30:03 36° SSW 20:33:46 11° SE visible
29 Apr 3.5 22:08:51 10° SW 22:09:05 11° SW 22:09:05 11° SW visible
30 Apr 2.0 20:15:25 10° W 20:19:05 31° SSW 20:22:46 10° SE visible
